Hastings, NE

1:21 PM CDT on March 29, 2017 (GMT -0500)
Hastings Municipal

Weather History for KHSI - April, 2012

Change the Weather History Date:

Wednesday, April 4, 2012

  Actual Average Record
Temperature  
Mean Temperature 51 °F 47 °F  
Max Temperature 55 °F 59 °F 87 °F (1959)
Min Temperature 46 °F 35 °F 13 °F (1968)
Degree Days  
Heating Degree Days 14 18  
Month to date heating degree days 30 74  
Since 1 July heating degree days 4763 5481  
Cooling Degree Days 0 0  
Month to date cooling degree days 6 0  
Year to date cooling degree days 26 0  
Moisture  
Dew Point 44 °F    
Average Humidity 74    
Maximum Humidity 93    
Minimum Humidity 54    
Precipitation  
Precipitation 0.87 in 0.05 in 1.78 in (1898)
Month to date precipitation 0.87 0.23  
Year to date precipitation 3.54 2.92  
Snow  
Snow 0.00 in 0.10 in 8.00 in (1920)
Month to date snowfall 0.0 0.4  
Since 1 July snowfall 22.5 28.0  
Snow Depth 0.00 in    
Sea Level Pressure  
Sea Level Pressure 29.87 in    
Wind  
Wind Speed 9 mph (NNE)    
Max Wind Speed 21 mph    
Max Gust Speed 25 mph    
Visibility 6 miles    
Events Rain    
T = Trace of Precipitation, MM = Missing Value Source: NWS Daily Summary

Daily Weather History Graph

Daily Weather History Graph

Search for Another Location

Airport or City:

Trip Planner

Search our weather history database for the weather conditions in past years. The results will help you decide how hot, cold, wet, or windy it might be!

Date:

Astronomy

Apr. 04, 2012 Rise Set
Actual Time 7:11 AM CDT 8:02 PM CDT
Civil Twilight 6:43 AM CDT 8:29 PM CDT
Nautical Twilight 6:11 AM CDT 9:02 PM CDT
Astronomical Twilight 5:37 AM CDT 9:36 PM CDT
Moon 5:57 PM CDT (4/4) 5:35 AM CDT (4/4)
Length of Visible Light 13h 45m
Length of Day
12h 50m
Waxing Gibbous, 94% of the Moon is Illuminated
Apr 4
Waxing Gibbous
Apr 6
Full
Apr 13
Last Quarter
Apr 21
New
Apr 29
First Quarter

Hourly Weather History & Observations

Time (CDT) Temp. Windchill Dew Point Humidity Pressure Visibility Wind Dir Wind Speed Gust Speed Precip Events Conditions
12:53 AM 54.0 °F - 43.0 °F 66% 29.95 in 10.0 mi NNE 10.4 mph - N/A   Overcast
1:53 AM 54.0 °F - 42.1 °F 64% 29.92 in 10.0 mi NE 13.8 mph 20.7 mph N/A   Overcast
2:53 AM 54.0 °F - 39.0 °F 57% 29.92 in 10.0 mi ENE 11.5 mph - N/A   Overcast
3:53 AM 53.6 °F - 37.4 °F 54% 29.92 in 10.0 mi ENE 11.5 mph - N/A   Overcast
4:53 AM 52.0 °F - 37.9 °F 59% 29.90 in 10.0 mi ENE 8.1 mph - N/A   Overcast
5:53 AM 51.1 °F - 36.0 °F 56% 29.89 in 10.0 mi ENE 10.4 mph - N/A   Overcast
6:21 AM 51.8 °F - 35.6 °F 54% 29.88 in 10.0 mi NE 12.7 mph - N/A   Overcast
6:53 AM 48.9 °F - 37.9 °F 66% 29.88 in 10.0 mi NE 11.5 mph - 0.00 in Rain Light Rain
7:53 AM 46.4 °F 44.3 °F 41.0 °F 81% 29.90 in 5.0 mi ENE 4.6 mph - N/A Rain Rain
8:13 AM 46.4 °F 43.5 °F 41.0 °F 81% 29.91 in 7.0 mi ENE 5.8 mph - 0.02 in Rain Light Rain
8:53 AM 46.0 °F 43.1 °F 43.0 °F 89% 29.91 in 4.0 mi North 5.8 mph - 0.08 in Rain Rain
9:53 AM 46.4 °F 44.3 °F 44.6 °F 93% 29.92 in 2.5 mi North 4.6 mph - N/A Rain Rain
10:11 AM 46.4 °F 45.2 °F 44.6 °F 93% 29.92 in 3.0 mi NNW 3.5 mph - 0.04 in Rain Rain
10:53 AM 46.0 °F 41.9 °F 44.1 °F 93% 29.93 in 2.5 mi NNW 8.1 mph - 0.07 in Rain Light Rain
11:04 AM 46.4 °F 41.5 °F 44.6 °F 93% 29.92 in 4.0 mi NNW 10.4 mph - 0.00 in Rain Light Rain
11:33 AM 46.4 °F 40.7 °F 44.6 °F 93% 29.91 in 2.5 mi North 12.7 mph - 0.01 in Rain Light Rain
11:46 AM 46.4 °F 40.1 °F 44.6 °F 93% 29.91 in 2.5 mi North 15.0 mph - 0.02 in Rain Light Rain
11:53 AM 46.0 °F 40.2 °F 45.0 °F 96% 29.91 in 2.5 mi NNE 12.7 mph - 0.02 in Rain Light Rain
12:06 PM 46.4 °F 39.5 °F 44.6 °F 93% 29.89 in 4.0 mi North 17.3 mph - 0.01 in Rain Light Rain
12:17 PM 46.4 °F 39.8 °F 44.6 °F 93% 29.89 in 1.8 mi North 16.1 mph - 0.02 in Rain Light Rain
12:31 PM 46.4 °F 39.0 °F 44.6 °F 93% 29.88 in 2.5 mi North 19.6 mph - 0.02 in Rain Light Rain
12:41 PM 46.4 °F 39.2 °F 44.6 °F 93% 29.87 in 4.0 mi North 18.4 mph - 0.03 in Rain Light Rain
12:53 PM 46.9 °F - 45.0 °F 93% 29.87 in 4.0 mi North 17.3 mph - 0.04 in Rain Light Rain
1:53 PM 48.9 °F - 45.0 °F 86% 29.85 in 4.0 mi NNE 18.4 mph 24.2 mph 0.02 in Rain Light Rain
2:21 PM 48.2 °F - 46.4 °F 93% 29.85 in 8.0 mi NNE 15.0 mph - 0.01 in Rain Light Rain
2:53 PM 48.9 °F - 46.0 °F 90% 29.84 in 3.0 mi NNE 16.1 mph - 0.02 in Rain Light Rain
3:00 PM 48.2 °F - 46.4 °F 93% 29.84 in 3.0 mi NNE 15.0 mph - 0.01 in Rain Light Rain
3:15 PM 48.2 °F - 46.4 °F 93% 29.84 in 5.0 mi NNE 12.7 mph - 0.02 in Rain Rain
3:36 PM 48.2 °F - 46.4 °F 93% 29.84 in 1.8 mi NNE 15.0 mph - 0.09 in Rain Heavy Rain
3:50 PM 48.2 °F - 46.4 °F 93% 29.83 in 3.0 mi North 12.7 mph - 0.13 in Rain Light Rain
3:53 PM 48.0 °F - 46.0 °F 93% 29.83 in 3.0 mi North 11.5 mph - 0.15 in Rain Light Rain
4:01 PM 48.2 °F - 46.4 °F 93% 29.83 in 2.5 mi North 13.8 mph - 0.01 in Rain Light Rain
4:08 PM 48.2 °F - 46.4 °F 93% 29.83 in 8.0 mi North 13.8 mph - N/A Rain Light Rain
4:53 PM 48.9 °F - 46.9 °F 93% 29.85 in 1.8 mi Calm Calm - 0.11 in Rain Rain
5:04 PM 48.2 °F - 46.4 °F 93% 29.84 in 3.0 mi WNW 4.6 mph - 0.02 in Rain Light Rain
5:12 PM 48.2 °F - 46.4 °F 93% 29.85 in 7.0 mi SW 3.5 mph - 0.02 in Rain Light Rain
5:24 PM 48.2 °F - 46.4 °F 93% 29.85 in 7.0 mi West 4.6 mph - 0.02 in   Overcast
5:53 PM 48.9 °F - 46.9 °F 93% 29.86 in 4.0 mi WNW 6.9 mph - 0.03 in Rain Light Rain
6:08 PM 48.2 °F - 46.4 °F 93% 29.84 in 2.5 mi NNW 9.2 mph - 0.03 in Rain Light Rain
6:16 PM 48.2 °F - 46.4 °F 93% 29.82 in 7.0 mi NNW 15.0 mph - 0.03 in Rain Light Rain
6:37 PM 48.2 °F - 46.4 °F 93% 29.82 in 9.0 mi North 13.8 mph - 0.03 in Rain Light Rain
6:53 PM 48.9 °F - 46.0 °F 90% 29.82 in 10.0 mi NNW 12.7 mph - 0.03 in   Overcast
7:53 PM 48.9 °F - 46.9 °F 93% 29.82 in 10.0 mi NNE 11.5 mph - 0.01 in   Overcast
8:53 PM 50.0 °F - 46.9 °F 89% 29.83 in 10.0 mi NNE 9.2 mph - N/A   Overcast
9:53 PM 50.0 °F - 46.9 °F 89% 29.84 in 10.0 mi NNE 8.1 mph - N/A   Overcast
10:53 PM 50.0 °F - 46.9 °F 89% 29.86 in 10.0 mi NE 3.5 mph - N/A   Overcast
11:53 PM 50.0 °F - 46.9 °F 89% 29.86 in 6.0 mi Calm Calm - 0.01 in Rain Light Rain